Precipitable_Water
0.91 0.92 0.93 0.91 0.90 0.89 0.90 0.92 0.92 0.91 0.84 0.78 0.77 0.78 0.66 0.61 0.65 0.67 0.65 0.62 0.60 0.55 0.52 0.53 0.54 0.55 0.56 0.57 0.59 0.60 0.60 0.60 0.59 0.57 0.55 0.54 0.54 0.54 0.54 0.55 0.53 0.55 0.55 0.53 0.53 0.54 0.53 0.53 0.53 0.55 0.58 0.56 0.58 0.59 0.60 0.61 0.62 0.62 0.63 0.62 0.60 0.62 0.61 0.59 0.55 0.54 0.56 0.55 0.51 0.50 0.52 0.53 0.49 0.50 0.48 0.49 0.48 0.46 0.44 0.43 0.41 0.39 0.38 0.38 0.41
0.92 0.92 0.92 0.92 0.90 0.90 0.89 0.91 0.93 0.91 0.84 0.76 0.79 0.80 0.71 0.62 0.65 0.67 0.63 0.63 0.62 0.59 0.58 0.59 0.58 0.58 0.58 0.59 0.62 0.63 0.64 0.63 0.62 0.61 0.58 0.57 0.56 0.56 0.54 0.53 0.52 0.53 0.54 0.52 0.52 0.53 0.54 0.52 0.52 0.53 0.56 0.55 0.56 0.56 0.58 0.59 0.59 0.59 0.60 0.59 0.59 0.61 0.65 0.59 0.56 0.52 0.50 0.52 0.50 0.49 0.48 0.50 0.46 0.48 0.48 0.49 0.50 0.51 0.48 0.47 0.46 0.43 0.40 0.39 0.38
0.92 0.91 0.88 0.86 0.86 0.89 0.90 0.90 0.93 0.91 0.83 0.75 0.77 0.81 0.74 0.66 0.67 0.67 0.65 0.65 0.65 0.64 0.62 0.61 0.62 0.62 0.61 0.61 0.62 0.62 0.64 0.64 0.64 0.63 0.63 0.62 0.61 0.61 0.60 0.58 0.55 0.53 0.53 0.53 0.54 0.55 0.55 0.55 0.55 0.56 0.57 0.55 0.55 0.56 0.57 0.57 0.57 0.56 0.56 0.58 0.59 0.62 0.62 0.61 0.58 0.53 0.51 0.50 0.51 0.49 0.49 0.49 0.47 0.45 0.46 0.47 0.48 0.48 0.48 0.48 0.48 0.47 0.45 0.43 0.40
0.91 0.90 0.88 0.85 0.85 0.85 0.86 0.90 0.92 0.91 0.81 0.74 0.76 0.81 0.76 0.68 0.66 0.67 0.68 0.68 0.65 0.67 0.68 0.65 0.63 0.63 0.62 0.62 0.62 0.62 0.63 0.64 0.65 0.65 0.65 0.65 0.65 0.66 0.66 0.65 0.63 0.62 0.60 0.59 0.59 0.59 0.59 0.59 0.61 0.62 0.62 0.61 0.60 0.59 0.59 0.59 0.58 0.56 0.56 0.57 0.61 0.63 0.64 0.65 0.63 0.59 0.56 0.53 0.55 0.53 0.54 0.53 0.52 0.52 0.50 0.50 0.47 0.46 0.45 0.47 0.48 0.47 0.46 0.44 0.42
0.89 0.88 0.88 0.87 0.88 0.89 0.89 0.90 0.90 0.88 0.83 0.78 0.78 0.83 0.79 0.72 0.69 0.66 0.66 0.66 0.68 0.70 0.73 0.72 0.67 0.66 0.66 0.67 0.68 0.68 0.69 0.69 0.69 0.71 0.74 0.76 0.77 0.78 0.78 0.77 0.77 0.76 0.75 0.74 0.72 0.72 0.71 0.70 0.70 0.70 0.70 0.68 0.68 0.66 0.65 0.63 0.61 0.60 0.58 0.59 0.62 0.62 0.63 0.63 0.63 0.63 0.60 0.57 0.57 0.58 0.57 0.55 0.54 0.54 0.53 0.50 0.49 0.50 0.50 0.48 0.47 0.47 0.48 0.49 0.47
0.89 0.87 0.87 0.86 0.88 0.91 0.94 0.92 0.89 0.87 0.85 0.84 0.84 0.86 0.83 0.77 0.73 0.69 0.67 0.66 0.72 0.75 0.75 0.76 0.75 0.72 0.73 0.76 0.78 0.79 0.78 0.79 0.82 0.84 0.85 0.87 0.88 0.90 0.90 0.90 0.89 0.88 0.88 0.88 0.87 0.86 0.84 0.83 0.83 0.80 0.78 0.75 0.74 0.74 0.72 0.70 0.68 0.65 0.62 0.61 0.62 0.63 0.62 0.62 0.62 0.61 0.60 0.59 0.58 0.57 0.58 0.55 0.55 0.55 0.53 0.52 0.50 0.49 0.49 0.50 0.50 0.49 0.48 0.47 0.47
0.90 0.90 0.89 0.89 0.91 0.95 0.98 0.97 0.95 0.91 0.89 0.88 0.88 0.86 0.85 0.82 0.78 0.74 0.71 0.69 0.72 0.77 0.80 0.80 0.84 0.83 0.82 0.83 0.84 0.86 0.86 0.86 0.87 0.89 0.91 0.93 0.93 0.93 0.93 0.93 0.94 0.94 0.94 0.93 0.93 0.94 0.93 0.91 0.90 0.89 0.85 0.83 0.82 0.81 0.80 0.77 0.75 0.73 0.71 0.68 0.66 0.66 0.66 0.64 0.63 0.63 0.61 0.59 0.59 0.58 0.57 0.58 0.56 0.51 0.53 0.54 0.53 0.51 0.48 0.47 0.46 0.47 0.47 0.45 0.43
0.90 0.89 0.88 0.89 0.92 0.94 0.97 0.99 0.97 0.94 0.89 0.86 0.86 0.87 0.88 0.85 0.83 0.83 0.78 0.70 0.71 0.78 0.83 0.85 0.88 0.89 0.90 0.91 0.92 0.93 0.94 0.92 0.92 0.93 0.94 0.95 0.95 0.95 0.95 0.95 0.96 0.98 0.98 0.98 0.98 0.98 0.97 0.95 0.93 0.93 0.94 0.93 0.92 0.92 0.90 0.85 0.83 0.80 0.79 0.76 0.74 0.72 0.70 0.70 0.70 0.67 0.63 0.60 0.58 0.57 0.57 0.56 0.57 0.58 0.58 0.57 0.53 0.52 0.52 0.48 0.43 0.42 0.43 0.45 0.45
0.86 0.86 0.87 0.86 0.88 0.91 0.93 0.95 0.98 0.97 0.92 0.86 0.85 0.86 0.87 0.88 0.89 0.89 0.86 0.78 0.77 0.80 0.85 0.88 0.89 0.90 0.93 0.95 0.95 0.96 0.94 0.95 0.97 0.98 0.98 0.97 0.98 0.97 0.98 0.98 0.98 0.98 0.99 0.98 0.97 0.98 0.97 0.95 0.94 0.95 0.98 0.97 0.95 0.95 0.97 0.96 0.92 0.86 0.84 0.80 0.77 0.75 0.74 0.72 0.70 0.67 0.65 0.62 0.61 0.62 0.59 0.57 0.57 0.56 0.55 0.54 0.52 0.50 0.52 0.51 0.46 0.45 0.42 0.40 0.41
0.81 0.83 0.84 0.85 0.88 0.90 0.92 0.92 0.93 0.94 0.93 0.90 0.87 0.85 0.86 0.88 0.90 0.90 0.91 0.90 0.85 0.84 0.83 0.85 0.87 0.90 0.92 0.94 0.97 0.98 0.98 0.98 0.99 1.00 0.99 0.99 0.99 0.99 1.00 1.00 1.00 0.99 0.96 0.94 0.95 0.97 0.96 0.96 0.96 0.95 0.94 0.95 0.94 0.91 0.90 0.92 0.92 0.89 0.84 0.81 0.78 0.75 0.72 0.69 0.67 0.65 0.62 0.61 0.61 0.59 0.57 0.57 0.58 0.58 0.56 0.57 0.57 0.56 0.53 0.50 0.45 0.44 0.42 0.38 0.38
0.75 0.76 0.77 0.81 0.84 0.86 0.87 0.89 0.91 0.90 0.93 0.95 0.93 0.90 0.88 0.88 0.89 0.90 0.92 0.93 0.92 0.91 0.89 0.87 0.87 0.90 0.93 0.94 0.94 0.97 1.00 1.01 1.01 0.97 0.97 0.96 0.97 0.99 0.99 1.00 1.00 0.98 0.94 0.92 0.91 0.93 0.94 0.94 0.95 0.95 0.92 0.90 0.91 0.91 0.90 0.88 0.85 0.81 0.78 0.75 0.75 0.73 0.69 0.67 0.63 0.61 0.59 0.59 0.60 0.58 0.58 0.57 0.58 0.58 0.57 0.57 0.57 0.54 0.51 0.49 0.45 0.42 0.38 0.35 0.32
0.65 0.69 0.73 0.77 0.79 0.81 0.83 0.85 0.86 0.87 0.89 0.91 0.93 0.95 0.95 0.92 0.90 0.91 0.92 0.94 0.96 0.96 0.93 0.92 0.93 0.93 0.92 0.95 0.96 0.97 0.98 1.00 1.00 0.99 0.99 0.98 0.99 1.03 1.04 1.02 1.00 0.97 0.94 0.92 0.92 0.92 0.92 0.93 0.94 0.95 0.93 0.92 0.90 0.87 0.83 0.82 0.79 0.74 0.69 0.66 0.66 0.67 0.68 0.65 0.60 0.57 0.59 0.58 0.58 0.57 0.55 0.53 0.54 0.56 0.56 0.55 0.52 0.50 0.48 0.44 0.41 0.39 0.36 0.34 0.33
0.54 0.56 0.62 0.70 0.77 0.81 0.82 0.83 0.84 0.86 0.88 0.90 0.92 0.93 0.93 0.93 0.93 0.93 0.96 0.98 0.98 0.98 0.94 0.91 0.90 0.91 0.92 0.91 0.92 0.96 1.00 1.02 1.00 1.00 1.03 1.03 1.03 1.04 1.03 1.02 0.98 0.96 0.94 0.92 0.91 0.90 0.91 0.91 0.89 0.88 0.86 0.84 0.81 0.81 0.79 0.77 0.74 0.70 0.65 0.63 0.63 0.63 0.61 0.59 0.59 0.61 0.62 0.58 0.55 0.53 0.52 0.52 0.51 0.52 0.53 0.51 0.50 0.44 0.41 0.38 0.37 0.36 0.35 0.33 0.33
0.54 0.52 0.53 0.55 0.59 0.66 0.75 0.81 0.82 0.85 0.89 0.91 0.91 0.90 0.90 0.89 0.92 0.94 0.94 0.96 0.96 0.91 0.93 0.89 0.88 0.88 0.91 0.93 0.94 0.96 0.97 1.01 1.02 1.02 1.04 1.04 1.02 0.99 0.94 0.91 0.88 0.84 0.80 0.78 0.77 0.78 0.78 0.75 0.72 0.69 0.70 0.71 0.74 0.76 0.76 0.74 0.71 0.69 0.66 0.63 0.61 0.60 0.58 0.57 0.60 0.61 0.59 0.55 0.53 0.50 0.53 0.52 0.49 0.50 0.51 0.49 0.43 0.38 0.35 0.32 0.34 0.33 0.33 0.32 0.33
0.57 0.58 0.57 0.56 0.54 0.53 0.54 0.61 0.70 0.76 0.82 0.87 0.89 0.89 0.90 0.91 0.92 0.94 0.95 0.94 0.93 0.89 0.92 0.90 0.87 0.87 0.89 0.93 0.96 0.99 1.01 1.01 0.99 0.98 0.95 0.92 0.89 0.85 0.82 0.76 0.68 0.62 0.59 0.58 0.58 0.58 0.59 0.60 0.62 0.64 0.66 0.68 0.71 0.73 0.70 0.69 0.67 0.64 0.60 0.58 0.58 0.58 0.59 0.60 0.61 0.59 0.57 0.56 0.54 0.53 0.52 0.52 0.50 0.49 0.47 0.45 0.41 0.38 0.37 0.35 0.35 0.34 0.34 0.35 0.35
0.61 0.62 0.62 0.61 0.58 0.55 0.53 0.54 0.56 0.65 0.74 0.79 0.81 0.84 0.87 0.90 0.91 0.94 0.94 0.93 0.94 0.95 0.94 0.91 0.87 0.87 0.90 0.91 0.91 0.90 0.92 0.93 0.91 0.88 0.84 0.79 0.74 0.68 0.63 0.58 0.55 0.55 0.55 0.56 0.58 0.59 0.61 0.62 0.63 0.63 0.64 0.65 0.65 0.66 0.66 0.65 0.61 0.58 0.56 0.56 0.55 0.57 0.57 0.57 0.58 0.59 0.59 0.56 0.54 0.52 0.51 0.49 0.46 0.46 0.44 0.42 0.40 0.41 0.40 0.40 0.38 0.36 0.33 0.30 0.28
0.58 0.59 0.59 0.59 0.59 0.59 0.57 0.55 0.55 0.57 0.64 0.72 0.76 0.79 0.82 0.84 0.86 0.88 0.87 0.88 0.87 0.86 0.86 0.86 0.86 0.86 0.84 0.82 0.79 0.77 0.77 0.78 0.76 0.75 0.71 0.67 0.63 0.59 0.58 0.57 0.57 0.57 0.57 0.58 0.58 0.59 0.60 0.61 0.62 0.62 0.62 0.62 0.62 0.62 0.60 0.59 0.57 0.55 0.54 0.53 0.54 0.54 0.55 0.59 0.58 0.56 0.54 0.52 0.51 0.50 0.48 0.46 0.45 0.43 0.41 0.40 0.39 0.39 0.37 0.33 0.31 0.32 0.29 0.25 0.26
0.53 0.53 0.55 0.58 0.60 0.60 0.58 0.55 0.53 0.55 0.59 0.64 0.67 0.70 0.73 0.74 0.75 0.79 0.79 0.79 0.80 0.80 0.78 0.75 0.75 0.73 0.68 0.65 0.62 0.60 0.60 0.61 0.60 0.59 0.59 0.60 0.60 0.59 0.58 0.57 0.56 0.56 0.56 0.57 0.56 0.56 0.57 0.56 0.58 0.59 0.58 0.57 0.57 0.55 0.53 0.53 0.51 0.51 0.51 0.52 0.53 0.54 0.54 0.55 0.54 0.53 0.52 0.50 0.49 0.47 0.45 0.44 0.43 0.40 0.39 0.38 0.38 0.37 0.34 0.29 0.31 0.31 0.27 0.27 0.25
0.50 0.51 0.53 0.55 0.57 0.59 0.60 0.58 0.57 0.57 0.57 0.60 0.62 0.63 0.64 0.66 0.68 0.72 0.72 0.73 0.71 0.70 0.67 0.63 0.62 0.61 0.60 0.58 0.56 0.54 0.53 0.51 0.52 0.53 0.56 0.58 0.60 0.60 0.58 0.56 0.54 0.55 0.55 0.55 0.56 0.55 0.53 0.53 0.53 0.54 0.53 0.51 0.51 0.51 0.51 0.52 0.52 0.53 0.54 0.54 0.52 0.51 0.52 0.52 0.51 0.50 0.49 0.47 0.47 0.46 0.45 0.44 0.42 0.41 0.41 0.38 0.37 0.36 0.36 0.34 0.33 0.30 0.27 0.27 0.27
0.48 0.50 0.52 0.53 0.54 0.54 0.55 0.55 0.56 0.56 0.56 0.56 0.58 0.60 0.61 0.61 0.61 0.61 0.61 0.61 0.60 0.61 0.59 0.56 0.53 0.52 0.52 0.50 0.48 0.46 0.44 0.44 0.46 0.49 0.51 0.55 0.57 0.58 0.59 0.55 0.52 0.53 0.54 0.53 0.51 0.51 0.50 0.50 0.51 0.51 0.50 0.50 0.50 0.51 0.52 0.54 0.55 0.56 0.56 0.53 0.50 0.48 0.50 0.50 0.48 0.47 0.45 0.44 0.44 0.43 0.41 0.40 0.40 0.40 0.38 0.37 0.36 0.36 0.34 0.33 0.33 0.31 0.29 0.28 0.28
0.47 0.48 0.49 0.50 0.51 0.51 0.51 0.52 0.53 0.55 0.56 0.55 0.55 0.56 0.56 0.55 0.55 0.55 0.54 0.54 0.53 0.52 0.51 0.49 0.47 0.45 0.45 0.46 0.45 0.45 0.45 0.45 0.47 0.47 0.49 0.51 0.54 0.56 0.58 0.57 0.56 0.55 0.54 0.52 0.51 0.49 0.48 0.49 0.49 0.49 0.48 0.49 0.49 0.50 0.51 0.52 0.53 0.52 0.51 0.49 0.48 0.49 0.49 0.46 0.44 0.44 0.44 0.42 0.40 0.39 0.38 0.38 0.37 0.36 0.35 0.34 0.33 0.34 0.34 0.34 0.34 0.34 0.32 0.30 0.29
0.43 0.44 0.45 0.46 0.47 0.48 0.50 0.52 0.52 0.53 0.55 0.55 0.57 0.57 0.59 0.58 0.55 0.54 0.54 0.53 0.52 0.50 0.49 0.48 0.47 0.44 0.44 0.45 0.46 0.47 0.49 0.48 0.48 0.48 0.50 0.52 0.54 0.56 0.56 0.57 0.58 0.56 0.53 0.52 0.52 0.51 0.51 0.50 0.49 0.49 0.49 0.49 0.48 0.48 0.48 0.49 0.50 0.50 0.48 0.48 0.47 0.46 0.45 0.45 0.45 0.43 0.40 0.38 0.37 0.36 0.35 0.34 0.33 0.32 0.32 0.32 0.33 0.33 0.34 0.34 0.35 0.35 0.35 0.34 0.31
0.42 0.41 0.42 0.44 0.45 0.46 0.48 0.50 0.51 0.52 0.52 0.53 0.53 0.54 0.57 0.59 0.59 0.59 0.57 0.56 0.54 0.52 0.52 0.52 0.50 0.48 0.47 0.47 0.47 0.48 0.48 0.48 0.47 0.47 0.48 0.50 0.52 0.55 0.56 0.57 0.57 0.58 0.54 0.52 0.52 0.52 0.52 0.51 0.50 0.50 0.49 0.49 0.49 0.49 0.48 0.48 0.48 0.48 0.47 0.47 0.46 0.45 0.44 0.41 0.39 0.37 0.36 0.35 0.34 0.33 0.32 0.32 0.31 0.30 0.31 0.31 0.32 0.33 0.33 0.34 0.34 0.34 0.34 0.34 0.34
0.40 0.40 0.40 0.42 0.44 0.46 0.46 0.47 0.50 0.52 0.52 0.52 0.53 0.55 0.56 0.56 0.59 0.61 0.60 0.59 0.57 0.56 0.57 0.57 0.55 0.51 0.49 0.50 0.48 0.46 0.46 0.46 0.47 0.47 0.49 0.50 0.51 0.54 0.56 0.58 0.59 0.59 0.58 0.56 0.55 0.54 0.52 0.51 0.50 0.50 0.49 0.48 0.48 0.48 0.48 0.47 0.46 0.45 0.44 0.43 0.42 0.40 0.39 0.38 0.37 0.36 0.35 0.34 0.32 0.31 0.30 0.30 0.30 0.29 0.30 0.30 0.31 0.32 0.33 0.34 0.34 0.34 0.34 0.34 0.35
0.37 0.37 0.37 0.38 0.40 0.44 0.46 0.46 0.47 0.48 0.50 0.51 0.51 0.52 0.55 0.57 0.55 0.57 0.59 0.60 0.60 0.59 0.59 0.58 0.54 0.51 0.50 0.50 0.50 0.48 0.47 0.48 0.48 0.49 0.49 0.51 0.53 0.54 0.56 0.57 0.58 0.58 0.57 0.57 0.56 0.54 0.52 0.51 0.50 0.49 0.48 0.47 0.47 0.46 0.46 0.46 0.45 0.44 0.42 0.40 0.39 0.39 0.39 0.38 0.36 0.35 0.33 0.31 0.29 0.28 0.28 0.28 0.29 0.29 0.31 0.33 0.34 0.34 0.33 0.33 0.34 0.34 0.35 0.35 0.36
0.33 0.34 0.35 0.35 0.36 0.37 0.40 0.43 0.45 0.46 0.48 0.50 0.51 0.53 0.54 0.55 0.53 0.55 0.58 0.57 0.57 0.56 0.56 0.54 0.52 0.52 0.51 0.51 0.51 0.50 0.51 0.50 0.51 0.52 0.53 0.54 0.54 0.54 0.55 0.55 0.56 0.56 0.57 0.56 0.55 0.53 0.52 0.51 0.50 0.48 0.47 0.47 0.47 0.46 0.46 0.45 0.43 0.40 0.39 0.40 0.40 0.39 0.38 0.37 0.35 0.32 0.29 0.28 0.27 0.26 0.27 0.29 0.31 0.33 0.34 0.33 0.31 0.31 0.32 0.31 0.32 0.33 0.34 0.34 0.34
0.29 0.30 0.31 0.32 0.33 0.34 0.34 0.37 0.41 0.44 0.46 0.47 0.49 0.51 0.55 0.57 0.59 0.59 0.59 0.57 0.56 0.55 0.54 0.54 0.54 0.54 0.52 0.52 0.52 0.51 0.51 0.52 0.54 0.56 0.57 0.56 0.55 0.54 0.55 0.54 0.56 0.56 0.55 0.54 0.54 0.53 0.52 0.51 0.49 0.48 0.47 0.48 0.49 0.49 0.45 0.43 0.42 0.42 0.40 0.40 0.39 0.39 0.38 0.36 0.32 0.28 0.27 0.27 0.28 0.29 0.31 0.31 0.32 0.31 0.30 0.31 0.31 0.32 0.34 0.34 0.33 0.34 0.35 0.36 0.35
0.25 0.25 0.26 0.28 0.29 0.30 0.31 0.31 0.34 0.39 0.42 0.44 0.45 0.46 0.49 0.52 0.53 0.55 0.57 0.59 0.58 0.57 0.57 0.56 0.55 0.55 0.54 0.53 0.53 0.53 0.54 0.55 0.56 0.55 0.56 0.56 0.56 0.56 0.56 0.56 0.55 0.54 0.53 0.54 0.54 0.53 0.52 0.50 0.49 0.49 0.48 0.47 0.44 0.44 0.43 0.44 0.43 0.42 0.40 0.39 0.38 0.38 0.34 0.31 0.30 0.30 0.31 0.31 0.30 0.30 0.29 0.30 0.29 0.30 0.31 0.32 0.33 0.34 0.36 0.36 0.36 0.36 0.37 0.38 0.36
0.25 0.25 0.26 0.26 0.26 0.27 0.28 0.29 0.30 0.32 0.38 0.42 0.44 0.45 0.45 0.47 0.49 0.52 0.58 0.63 0.62 0.57 0.56 0.55 0.55 0.56 0.55 0.53 0.51 0.48 0.48 0.47 0.50 0.54 0.55 0.55 0.55 0.55 0.55 0.55 0.56 0.55 0.55 0.55 0.53 0.51 0.50 0.48 0.48 0.46 0.43 0.40 0.39 0.40 0.41 0.42 0.41 0.40 0.38 0.37 0.35 0.33 0.30 0.28 0.28 0.29 0.29 0.27 0.27 0.27 0.28 0.30 0.30 0.32 0.33 0.33 0.35 0.36 0.39 0.39 0.40 0.40 0.41 0.42 0.40
0.27 0.25 0.26 0.26 0.26 0.26 0.27 0.27 0.29 0.30 0.32 0.36 0.41 0.44 0.47 0.47 0.47 0.48 0.52 0.58 0.61 0.62 0.61 0.59 0.57 0.54 0.54 0.53 0.50 0.45 0.44 0.46 0.50 0.50 0.50 0.51 0.52 0.53 0.54 0.54 0.55 0.54 0.53 0.53 0.52 0.50 0.48 0.46 0.44 0.42 0.41 0.40 0.39 0.38 0.38 0.37 0.36 0.35 0.35 0.33 0.31 0.28 0.28 0.29 0.28 0.26 0.25 0.25 0.27 0.28 0.30 0.31 0.32 0.33 0.34 0.35 0.37 0.39 0.42 0.42 0.43 0.44 0.44 0.44 0.45
0.29 0.28 0.27 0.26 0.26 0.27 0.28 0.27 0.28 0.30 0.31 0.32 0.36 0.40 0.43 0.47 0.49 0.47 0.47 0.49 0.52 0.54 0.58 0.57 0.55 0.53 0.52 0.49 0.50 0.50 0.50 0.48 0.47 0.46 0.46 0.46 0.47 0.48 0.48 0.49 0.49 0.49 0.50 0.49 0.47 0.45 0.43 0.41 0.41 0.41 0.40 0.39 0.36 0.36 0.35 0.35 0.34 0.32 0.31 0.28 0.28 0.28 0.28 0.26 0.25 0.25 0.25 0.27 0.29 0.31 0.32 0.33 0.33 0.35 0.36 0.38 0.39 0.42 0.45 0.47 0.47 0.48 0.48 0.49 0.49
0.32 0.31 0.30 0.29 0.29 0.28 0.28 0.29 0.30 0.30 0.31 0.32 0.33 0.35 0.40 0.43 0.47 0.49 0.48 0.48 0.49 0.51 0.51 0.50 0.49 0.49 0.50 0.48 0.46 0.46 0.46 0.46 0.45 0.44 0.45 0.44 0.44 0.44 0.44 0.44 0.45 0.46 0.46 0.44 0.40 0.39 0.39 0.38 0.38 0.38 0.37 0.35 0.34 0.35 0.34 0.33 0.31 0.29 0.28 0.27 0.28 0.28 0.25 0.24 0.23 0.24 0.27 0.29 0.30 0.32 0.33 0.35 0.36 0.38 0.40 0.42 0.44 0.46 0.47 0.48 0.49 0.50 0.51 0.51 0.51
0.38 0.36 0.35 0.33 0.32 0.30 0.29 0.29 0.31 0.31 0.31 0.31 0.32 0.34 0.35 0.37 0.40 0.43 0.49 0.52 0.54 0.55 0.54 0.54 0.54 0.52 0.51 0.50 0.50 0.48 0.45 0.45 0.46 0.46 0.45 0.44 0.43 0.43 0.43 0.43 0.43 0.43 0.42 0.39 0.38 0.37 0.38 0.38 0.37 0.37 0.36 0.34 0.34 0.33 0.32 0.30 0.29 0.28 0.29 0.28 0.26 0.25 0.25 0.24 0.25 0.27 0.29 0.31 0.33 0.34 0.35 0.37 0.39 0.41 0.43 0.46 0.47 0.47 0.49 0.49 0.51 0.51 0.51 0.51 0.51
0.44 0.43 0.40 0.39 0.36 0.34 0.32 0.31 0.31 0.32 0.33 0.34 0.33 0.33 0.34 0.35 0.36 0.40 0.43 0.45 0.48 0.56 0.60 0.61 0.60 0.58 0.56 0.56 0.54 0.53 0.52 0.50 0.48 0.47 0.45 0.44 0.44 0.44 0.43 0.42 0.42 0.41 0.40 0.39 0.38 0.38 0.38 0.38 0.37 0.36 0.35 0.34 0.32 0.31 0.30 0.29 0.29 0.30 0.29 0.27 0.27 0.26 0.24 0.23 0.25 0.27 0.31 0.33 0.34 0.35 0.37 0.39 0.41 0.43 0.45 0.48 0.50 0.50 0.50 0.50 0.51 0.51 0.50 0.50 0.50
0.48 0.48 0.47 0.45 0.42 0.39 0.37 0.34 0.34 0.34 0.34 0.35 0.34 0.33 0.34 0.35 0.36 0.36 0.36 0.39 0.42 0.42 0.44 0.53 0.60 0.59 0.58 0.58 0.56 0.55 0.53 0.52 0.48 0.46 0.43 0.43 0.44 0.44 0.42 0.40 0.39 0.40 0.41 0.40 0.39 0.38 0.37 0.37 0.36 0.35 0.34 0.33 0.32 0.30 0.29 0.30 0.30 0.28 0.27 0.27 0.27 0.24 0.22 0.22 0.25 0.29 0.32 0.33 0.34 0.35 0.37 0.40 0.43 0.46 0.48 0.49 0.49 0.49 0.49 0.50 0.51 0.51 0.50 0.50 0.50
0.45 0.46 0.48 0.49 0.48 0.45 0.42 0.39 0.36 0.36 0.36 0.35 0.35 0.35 0.35 0.36 0.35 0.36 0.35 0.37 0.42 0.45 0.47 0.50 0.53 0.59 0.60 0.59 0.57 0.56 0.54 0.51 0.48 0.44 0.43 0.43 0.43 0.40 0.38 0.40 0.40 0.40 0.39 0.39 0.39 0.39 0.38 0.37 0.37 0.36 0.35 0.32 0.31 0.30 0.31 0.30 0.28 0.28 0.28 0.28 0.25 0.22 0.21 0.22 0.26 0.29 0.32 0.34 0.34 0.36 0.38 0.41 0.45 0.47 0.50 0.50 0.50 0.50 0.50 0.51 0.51 0.51 0.51 0.51 0.50
0.45 0.46 0.46 0.48 0.49 0.49 0.47 0.44 0.40 0.39 0.39 0.38 0.37 0.36 0.35 0.35 0.35 0.35 0.36 0.37 0.37 0.41 0.43 0.46 0.52 0.54 0.57 0.57 0.57 0.56 0.54 0.50 0.46 0.43 0.42 0.41 0.41 0.40 0.41 0.39 0.38 0.38 0.38 0.39 0.39 0.38 0.38 0.37 0.37 0.35 0.33 0.31 0.31 0.31 0.30 0.29 0.29 0.29 0.29 0.27 0.23 0.21 0.21 0.23 0.27 0.30 0.32 0.33 0.34 0.36 0.38 0.42 0.46 0.48 0.49 0.49 0.50 0.51 0.51 0.51 0.52 0.52 0.51 0.50 0.50
0.46 0.47 0.48 0.49 0.48 0.49 0.49 0.47 0.44 0.41 0.40 0.40 0.39 0.37 0.35 0.35 0.35 0.35 0.36 0.38 0.39 0.37 0.37 0.41 0.46 0.47 0.49 0.53 0.55 0.51 0.48 0.46 0.44 0.42 0.41 0.40 0.39 0.38 0.38 0.39 0.39 0.38 0.38 0.39 0.39 0.38 0.37 0.36 0.35 0.33 0.32 0.32 0.32 0.30 0.29 0.29 0.29 0.29 0.28 0.25 0.22 0.21 0.22 0.25 0.28 0.31 0.33 0.34 0.34 0.36 0.38 0.42 0.46 0.48 0.49 0.49 0.49 0.50 0.50 0.51 0.51 0.50 0.50 0.50 0.51
0.48 0.49 0.50 0.49 0.49 0.49 0.49 0.49 0.47 0.44 0.42 0.41 0.40 0.38 0.36 0.35 0.35 0.35 0.36 0.36 0.38 0.39 0.40 0.40 0.42 0.44 0.47 0.49 0.48 0.48 0.45 0.41 0.39 0.37 0.37 0.38 0.38 0.37 0.38 0.38 0.39 0.39 0.39 0.38 0.37 0.36 0.35 0.34 0.34 0.32 0.32 0.32 0.30 0.29 0.29 0.29 0.29 0.28 0.26 0.23 0.21 0.21 0.22 0.25 0.28 0.31 0.32 0.33 0.34 0.36 0.38 0.41 0.46 0.49 0.49 0.49 0.50 0.50 0.50 0.51 0.51 0.51 0.50 0.50 0.51
0.46 0.48 0.50 0.50 0.49 0.49 0.49 0.49 0.48 0.46 0.44 0.42 0.41 0.40 0.38 0.37 0.36 0.36 0.36 0.35 0.36 0.38 0.39 0.39 0.39 0.41 0.44 0.45 0.43 0.41 0.39 0.38 0.36 0.37 0.37 0.36 0.37 0.40 0.40 0.40 0.39 0.39 0.38 0.37 0.36 0.35 0.34 0.32 0.30 0.30 0.31 0.30 0.29 0.30 0.30 0.30 0.29 0.26 0.24 0.22 0.20 0.21 0.23 0.27 0.29 0.30 0.31 0.33 0.35 0.36 0.37 0.40 0.44 0.48 0.49 0.50 0.50 0.51 0.51 0.51 0.51 0.52 0.52 0.52 0.52
0.45 0.46 0.48 0.49 0.49 0.49 0.49 0.49 0.48 0.47 0.47 0.45 0.43 0.42 0.40 0.39 0.38 0.38 0.37 0.36 0.36 0.36 0.36 0.37 0.38 0.41 0.42 0.46 0.48 0.45 0.46 0.43 0.42 0.39 0.37 0.36 0.39 0.41 0.42 0.41 0.40 0.40 0.40 0.39 0.38 0.37 0.33 0.29 0.28 0.30 0.29 0.29 0.30 0.30 0.31 0.29 0.26 0.24 0.22 0.21 0.21 0.22 0.25 0.28 0.29 0.30 0.32 0.33 0.35 0.35 0.36 0.38 0.42 0.45 0.47 0.49 0.51 0.52 0.52 0.52 0.52 0.53 0.53 0.53 0.53
0.44 0.44 0.45 0.47 0.48 0.48 0.48 0.48 0.48 0.49 0.49 0.47 0.45 0.42 0.40 0.38 0.40 0.42 0.40 0.39 0.39 0.38 0.37 0.37 0.38 0.39 0.38 0.39 0.43 0.45 0.46 0.45 0.41 0.38 0.39 0.41 0.41 0.42 0.41 0.41 0.43 0.43 0.41 0.39 0.37 0.34 0.31 0.28 0.28 0.29 0.29 0.30 0.30 0.31 0.30 0.27 0.24 0.22 0.21 0.21 0.21 0.23 0.26 0.28 0.29 0.31 0.32 0.33 0.34 0.35 0.36 0.37 0.39 0.42 0.46 0.48 0.50 0.51 0.52 0.52 0.53 0.53 0.53 0.53 0.53
0.41 0.42 0.43 0.45 0.47 0.48 0.48 0.49 0.50 0.50 0.49 0.47 0.44 0.43 0.41 0.38 0.42 0.43 0.43 0.41 0.40 0.38 0.39 0.36 0.39 0.38 0.38 0.41 0.44 0.45 0.44 0.43 0.41 0.42 0.44 0.44 0.43 0.42 0.41 0.42 0.43 0.42 0.40 0.38 0.36 0.34 0.30 0.28 0.28 0.29 0.30 0.30 0.31 0.31 0.28 0.25 0.23 0.22 0.21 0.21 0.22 0.24 0.27 0.28 0.29 0.30 0.32 0.33 0.34 0.35 0.35 0.36 0.37 0.39 0.42 0.45 0.48 0.50 0.51 0.52 0.52 0.53 0.53 0.53 0.53
0.44 0.43 0.42 0.42 0.43 0.45 0.47 0.48 0.48 0.48 0.46 0.44 0.43 0.43 0.40 0.44 0.45 0.45 0.44 0.42 0.39 0.37 0.39 0.41 0.41 0.46 0.45 0.40 0.42 0.42 0.40 0.43 0.44 0.44 0.44 0.43 0.42 0.42 0.42 0.43 0.42 0.39 0.36 0.36 0.36 0.33 0.28 0.28 0.29 0.30 0.31 0.32 0.32 0.30 0.26 0.24 0.23 0.21 0.20 0.21 0.22 0.25 0.27 0.28 0.29 0.30 0.31 0.32 0.33 0.34 0.34 0.35 0.36 0.37 0.39 0.42 0.44 0.46 0.48 0.50 0.52 0.52 0.53 0.53 0.53
0.46 0.45 0.44 0.43 0.41 0.41 0.42 0.44 0.44 0.44 0.44 0.43 0.43 0.42 0.43 0.43 0.42 0.42 0.42 0.40 0.40 0.40 0.42 0.43 0.43 0.42 0.43 0.44 0.43 0.42 0.43 0.44 0.44 0.43 0.42 0.41 0.42 0.43 0.43 0.42 0.39 0.36 0.35 0.36 0.35 0.31 0.28 0.29 0.30 0.30 0.31 0.32 0.31 0.27 0.25 0.24 0.23 0.21 0.21 0.21 0.22 0.24 0.27 0.28 0.29 0.30 0.31 0.31 0.32 0.33 0.34 0.34 0.34 0.36 0.37 0.39 0.41 0.43 0.45 0.47 0.49 0.51 0.52 0.53 0.53
0.46 0.46 0.45 0.44 0.43 0.42 0.41 0.42 0.43 0.43 0.43 0.42 0.41 0.40 0.41 0.42 0.42 0.41 0.41 0.42 0.42 0.41 0.42 0.41 0.41 0.43 0.44 0.44 0.44 0.44 0.45 0.45 0.44 0.43 0.43 0.44 0.44 0.43 0.42 0.39 0.37 0.36 0.36 0.36 0.34 0.31 0.29 0.30 0.31 0.31 0.31 0.30 0.27 0.25 0.24 0.23 0.23 0.22 0.22 0.22 0.22 0.24 0.27 0.29 0.30 0.30 0.31 0.31 0.32 0.33 0.33 0.34 0.34 0.35 0.36 0.37 0.39 0.41 0.43 0.45 0.48 0.50 0.51 0.52 0.52
0.47 0.47 0.47 0.46 0.45 0.44 0.43 0.43 0.42 0.41 0.40 0.39 0.38 0.38 0.38 0.39 0.40 0.41 0.42 0.41 0.40 0.41 0.41 0.40 0.41 0.41 0.42 0.44 0.46 0.46 0.46 0.45 0.44 0.45 0.45 0.44 0.43 0.41 0.39 0.37 0.36 0.36 0.36 0.36 0.34 0.31 0.31 0.31 0.32 0.32 0.31 0.28 0.26 0.24 0.24 0.23 0.23 0.23 0.23 0.22 0.22 0.23 0.26 0.28 0.29 0.30 0.31 0.32 0.32 0.33 0.33 0.33 0.34 0.35 0.35 0.36 0.37 0.39 0.40 0.43 0.45 0.47 0.50 0.51 0.52
0.50 0.48 0.47 0.47 0.47 0.46 0.44 0.43 0.42 0.42 0.41 0.40 0.40 0.40 0.40 0.41 0.41 0.40 0.40 0.40 0.41 0.42 0.42 0.42 0.44 0.46 0.47 0.47 0.47 0.46 0.46 0.45 0.45 0.45 0.43 0.41 0.40 0.38 0.37 0.35 0.36 0.36 0.36 0.35 0.34 0.31 0.32 0.33 0.34 0.33 0.31 0.28 0.25 0.24 0.24 0.23 0.23 0.23 0.23 0.23 0.23 0.22 0.23 0.26 0.28 0.30 0.31 0.32 0.32 0.33 0.33 0.33 0.34 0.35 0.35 0.35 0.36 0.37 0.38 0.40 0.43 0.46 0.48 0.50 0.52
0.51 0.51 0.49 0.48 0.46 0.46 0.46 0.46 0.46 0.46 0.45 0.46 0.46 0.45 0.43 0.43 0.43 0.43 0.45 0.46 0.46 0.46 0.46 0.45 0.46 0.47 0.47 0.46 0.46 0.46 0.46 0.45 0.43 0.42 0.41 0.40 0.38 0.36 0.35 0.35 0.36 0.37 0.36 0.35 0.33 0.31 0.33 0.34 0.33 0.32 0.30 0.27 0.25 0.24 0.24 0.24 0.24 0.24 0.24 0.24 0.23 0.22 0.22 0.24 0.27 0.29 0.31 0.32 0.32 0.33 0.33 0.33 0.34 0.34 0.35 0.35 0.36 0.36 0.37 0.39 0.41 0.43 0.46 0.49 0.51
0.49 0.49 0.50 0.50 0.50 0.49 0.48 0.48 0.47 0.46 0.47 0.47 0.47 0.46 0.45 0.45 0.45 0.47 0.48 0.47 0.47 0.47 0.46 0.46 0.46 0.46 0.46 0.45 0.45 0.45 0.44 0.42 0.41 0.40 0.38 0.37 0.36 0.35 0.34 0.36 0.36 0.37 0.37 0.35 0.33 0.32 0.33 0.32 0.32 0.31 0.30 0.27 0.26 0.25 0.26 0.26 0.26 0.26 0.25 0.25 0.24 0.24 0.23 0.23 0.26 0.28 0.30 0.32 0.32 0.33 0.33 0.33 0.33 0.34 0.34 0.35 0.35 0.36 0.36 0.37 0.39 0.41 0.44 0.46 0.49
0.50 0.50 0.49 0.49 0.49 0.49 0.49 0.49 0.48 0.48 0.49 0.49 0.48 0.47 0.47 0.46 0.46 0.47 0.47 0.47 0.47 0.47 0.47 0.47 0.46 0.46 0.45 0.45 0.44 0.43 0.42 0.39 0.38 0.37 0.36 0.35 0.35 0.34 0.34 0.34 0.36 0.38 0.37 0.36 0.34 0.33 0.33 0.32 0.32 0.31 0.29 0.28 0.27 0.27 0.27 0.28 0.28 0.28 0.27 0.26 0.26 0.25 0.24 0.23 0.24 0.27 0.30 0.31 0.32 0.33 0.32 0.32 0.32 0.32 0.33 0.34 0.34 0.35 0.35 0.36 0.37 0.39 0.41 0.44 0.47
Wind_Speed
12 12 12 12 13 12 12 12 12 13 12 12 11 10 10 11 10 10 10 10 10 9 9 9 9 8 8 8 8 7 7 7 6 6 5 5 5 4 4 5 5 5 5 5 5 6 6 6 6 7 7 7 7 7 7 7 7 7 7 7 7 7 7 8 8 8 9 9 10 10 10 10 11 11 11 11 12 12 12 12 13 13 13 14 14
11 12 12 12 12 12 12 12 12 12 12 11 11 11 11 12 11 11 11 11 11 11 10 10 10 9 9 9 9 9 8 8 8 8 7 7 6 6 6 6 6 6 6 7 7 7 8 8 8 8 8 8 8 9 9 9 9 9 9 9 9 9 9 9 9 10 10 11 11 12 12 12 12 12 13 13 13 13 13 14 14 14 14 15 15
11 11 11 12 12 13 13 13 12 12 11 12 11 11 12 12 12 12 12 12 12 12 12 11 11 11 10 10 10 10 10 10 9 9 9 9 8 8 8 8 8 8 8 8 9 9 9 9 9 9 10 10 10 10 11 11 11 10 10 10 10 10 10 11 11 11 12 12 13 13 13 14 14 14 14 15 15 15 15 15 15 16 16 16 16
12 12 12 12 12 13 14 13 13 12 12 13 12 12 13 13 13 13 13 13 13 12 13 13 13 12 12 12 12 11 11 11 11 11 11 11 11 11 11 11 11 11 11 11 11 11 11 11 11 10 10 11 11 12 12 12 12 12 12 12 11 11 11 12 12 13 13 14 14 15 15 15 16 16 17 17 17 17 17 17 17 17 18 18 18
12 12 12 13 13 13 13 13 13 14 14 14 14 14 14 14 14 14 14 14 14 14 13 14 14 14 14 14 14 14 13 13 13 13 13 13 13 13 13 13 13 13 13 13 13 13 13 13 13 13 12 12 13 13 13 13 14 14 14 14 13 13 13 13 14 14 15 15 16 16 17 17 17 18 18 19 19 19 19 19 19 20 20 20 20
12 12 13 14 14 14 15 15 15 15 15 15 15 16 16 15 15 15 15 16 16 16 15 15 15 15 16 16 16 16 16 15 15 15 15 15 15 14 14 14 14 14 14 14 15 15 15 15 15 15 15 15 14 14 14 15 15 15 15 15 15 15 15 15 15 15 16 16 17 17 18 19 19 20 20 20 20 20 21 21 21 21 22 22 22
13 13 14 14 15 15 15 16 16 16 16 16 16 17 17 17 17 17 17 17 18 18 17 17 16 17 17 17 17 17 18 17 17 17 16 17 17 16 16 16 16 16 16 16 17 17 17 17 17 17 17 17 16 16 16 16 17 17 16 16 16 16 16 16 17 17 17 18 18 19 20 20 21 21 22 22 22 22 22 23 23 23 23 24 24
15 15 15 15 16 16 16 16 17 17 18 17 17 18 19 19 20 19 19 19 19 19 19 18 18 18 18 18 18 19 19 19 19 19 19 19 19 19 18 18 18 18 18 19 19 18 18 19 19 19 18 18 19 18 18 18 18 18 18 18 18 18 19 19 19 19 20 20 21 21 21 22 22 22 23 23 23 23 24 24 25 25 25 26 25
15 15 16 16 16 16 17 17 17 18 19 19 20 20 20 21 22 22 21 21 21 21 21 21 20 20 20 20 20 21 21 21 21 20 20 21 21 21 21 21 20 21 21 21 20 20 20 20 20 20 20 20 21 21 20 20 20 20 19 19 20 20 21 21 21 22 22 23 23 24 24 24 24 24 24 25 25 26 26 26 27 27 27 28 27
16 17 17 17 17 17 18 18 19 19 20 21 21 22 22 23 24 24 24 24 23 23 23 23 23 22 22 22 23 22 22 22 23 23 22 22 23 23 22 23 23 23 22 22 22 22 22 22 22 22 22 22 22 22 23 22 22 22 22 22 22 22 23 23 24 24 24 25 25 26 26 26 26 26 26 27 27 28 29 29 29 30 30 30 30
18 18 19 19 19 19 19 20 20 21 22 22 22 23 23 24 25 26 26 26 26 25 25 25 24 24 24 24 24 24 23 23 24 24 24 25 25 24 24 24 23 23 22 22 22 22 22 23 22 22 23 23 23 24 24 24 24 24 24 24 24 25 25 26 26 26 26 26 27 27 27 28 29 29 29 29 30 30 31 31 32 32 32 32 32
20 20 21 21 21 21 21 22 22 23 23 23 23 23 24 24 25 26 27 27 27 27 27 27 27 26 27 27 27 27 27 26 25 25 26 25 25 24 23 23 22 21 21 22 22 22 22 23 23 23 23 24 25 25 26 26 26 25 25 26 26 27 27 27 28 28 28 28 28 29 29 30 30 30 31 31 32 33 33 33 34 34 34 35 35
21 21 22 22 23 23 23 23 24 24 24 25 25 25 25 25 26 27 27 28 28 28 28 28 29 29 29 28 28 29 29 28 27 26 25 23 22 21 21 21 21 22 22 23 23 23 23 23 23 24 25 25 26 26 26 26 26 26 26 27 27 27 28 28 29 29 29 29 30 30 30 31 31 32 32 33 34 34 35 35 35 36 36 37 37
21 22 22 22 23 23 24 24 25 25 26 26 27 27 27 28 28 28 28 28 28 28 27 27 27 27 26 26 26 26 26 26 24 23 22 21 21 21 21 22 22 23 23 23 23 23 24 24 25 25 26 26 27 27 26 26 26 27 27 28 28 28 29 29 29 30 30 30 30 30 31 31 32 33 33 34 35 35 36 36 37 38 38 39 40
23 23 23 23 23 23 23 24 25 26 26 27 27 28 28 28 28 28 28 28 28 27 26 25 25 25 25 24 24 24 23 23 22 22 22 22 22 22 22 23 23 23 23 23 23 24 24 25 26 26 27 27 27 27 27 27 27 27 28 28 29 29 29 30 30 30 30 30 30 31 31 32 33 34 34 35 36 37 37 38 39 40 40 41 41
23 23 23 24 24 24 24 24 25 26 26 26 27 27 28 28 28 28 28 28 28 27 26 25 25 25 25 24 24 23 23 23 23 23 23 23 22 23 23 23 23 23 23 23 23 24 24 25 25 26 27 27 27 27 27 27 26 27 28 29 29 29 30 30 30 30 30 30 31 31 32 33 34 35 36 36 37 38 38 39 40 40 41 41 41
26 26 26 26 26 27 26 26 25 26 26 27 27 27 28 28 28 28 28 28 28 27 26 25 24 24 24 24 24 24 23 23 23 23 23 23 23 23 23 23 23 23 23 23 23 23 24 24 25 25 26 26 26 26 26 26 27 28 28 29 30 30 30 31 31 31 31 31 32 33 34 34 35 36 37 37 38 39 39 40 40 40 41 42 42
29 29 29 29 29 28 28 28 27 26 26 27 28 28 28 28 28 28 28 27 27 26 25 24 23 23 23 23 23 23 23 22 23 23 23 23 23 23 23 23 23 23 23 23 23 23 23 24 24 25 25 25 25 25 26 27 28 28 29 30 30 31 31 31 31 31 32 32 33 34 35 36 37 37 38 38 39 39 40 40 40 41 42 42 42
32 32 32 31 31 30 29 29 28 28 27 28 28 28 28 28 27 27 27 27 26 26 25 24 23 23 22 23 23 22 22 22 22 22 23 23 23 23 23 23 23 23 23 23 23 23 23 24 24 24 24 24 24 25 26 27 28 29 29 30 30 30 31 31 32 32 33 34 34 35 36 37 37 38 39 39 40 40 40 41 41 41 42 42 42
34 34 34 33 33 33 32 31 30 30 30 30 30 29 28 28 27 27 27 27 26 26 25 25 24 23 23 23 22 22 21 21 22 22 23 23 24 24 24 24 24 24 24 24 24 24 24 24 24 24 24 24 24 24 25 26 27 28 29 29 30 30 31 31 32 33 34 34 35 36 37 37 38 39 39 40 40 40 41 41 41 41 42 42 42
36 36 35 35 34 34 34 33 32 32 32 32 32 31 30 30 29 29 29 28 27 27 26 26 25 24 23 23 22 22 21 21 22 22 23 24 24 25 25 25 25 25 25 24 24 25 25 25 24 24 24 24 24 24 25 26 27 28 29 29 29 30 31 32 32 33 34 35 35 36 36 37 38 38 39 39 39 40 40 41 41 41 41 41 41
38 37 37 36 36 35 34 34 33 33 32 32 32 33 33 32 32 31 30 29 28 28 27 27 26 25 24 24 24 23 23 23 23 23 24 24 25 26 26 26 26 26 26 25 25 25 25 25 25 25 24 24 24 25 25 26 27 28 29 29 29 30 31 32 33 33 34 34 35 35 36 37 37 38 38 38 39 39 40 40 40 40 41 41 41
40 40 39 38 38 37 36 35 35 34 33 33 33 33 34 34 33 33 32 31 30 29 29 28 28 28 27 27 26 26 26 25 25 25 25 25 26 26 26 27 27 27 27 27 26 26 26 25 25 25 25 25 25 25 26 27 28 28 29 29 30 31 32 32 32 33 33 34 34 35 35 36 36 37 37 37 38 39 39 39 39 40 40 40 40
42 42 41 41 40 39 38 37 37 36 35 34 34 33 34 34 35 34 34 33 32 32 31 31 30 30 30 29 29 28 28 28 27 27 27 27 27 27 27 27 28 28 28 27 27 27 26 26 26 25 25 25 26 26 26 27 28 29 29 30 30 31 31 31 32 32 33 33 34 34 35 35 35 36 37 37 38 38 38 38 38 38 38 39 39
44 43 43 42 42 41 41 40 39 38 37 36 35 34 34 35 35 36 36 36 35 34 33 33 32 32 32 31 31 30 30 30 29 29 28 28 27 27 27 27 28 28 28 28 27 27 26 26 25 25 26 26 26 27 27 28 28 29 29 30 30 30 30 30 31 31 32 32 33 33 34 34 35 36 36 36 36 36 36 36 37 37 38 38 39
46 45 45 44 44 43 42 42 41 39 38 38 37 36 36 35 35 36 36 36 36 35 35 34 34 34 33 33 32 32 32 31 31 30 29 29 28 28 28 28 28 27 27 27 26 26 26 26 26 26 26 27 27 28 28 28 28 28 28 29 29 29 29 29 30 30 31 31 32 32 33 34 34 34 35 35 35 35 36 36 36 37 37 37 38
47 47 47 46 45 45 44 43 43 41 40 39 38 38 38 38 37 36 36 36 36 35 34 34 35 34 34 33 33 32 32 32 31 30 30 30 29 29 29 28 28 27 27 27 26 26 26 26 26 27 27 27 27 27 27 27 27 27 28 28 27 28 28 28 29 29 29 30 30 31 32 32 33 33 34 34 35 35 35 35 36 36 36 36 36
47 47 47 47 47 46 46 45 44 43 42 41 40 40 41 41 40 39 38 37 36 35 34 34 33 32 32 33 33 32 32 32 32 31 31 31 30 30 30 29 28 28 28 27 27 27 27 27 27 27 27 27 26 26 26 27 27 27 27 27 27 27 27 28 28 27 27 28 29 30 31 31 32 32 33 33 34 34 35 35 35 35 35 35 35
47 47 47 47 47 47 46 46 45 45 44 43 41 41 41 42 42 41 40 39 38 37 36 34 33 33 33 33 33 32 32 32 31 31 31 31 31 30 30 29 29 29 29 28 28 28 28 28 28 28 27 27 27 27 27 27 27 26 26 26 26 26 26 25 25 25 26 27 28 29 30 30 31 32 32 33 33 34 34 35 35 34 33 32 31
45 45 45 45 46 46 46 45 45 45 45 44 43 42 41 42 42 43 42 41 41 40 39 38 36 36 35 34 33 32 32 32 31 31 30 30 30 30 30 30 30 29 29 29 28 28 28 28 28 27 27 27 27 27 26 26 26 26 25 25 24 24 23 23 23 24 26 27 27 28 29 30 31 31 32 33 33 34 33 33 32 30 29 27 26
43 43 43 44 44 44 44 44 44 44 44 44 44 43 42 41 41 42 42 43 43 43 42 40 38 37 37 36 34 33 33 32 32 32 31 31 31 31 30 30 30 29 29 29 28 28 27 27 27 27 26 26 26 25 25 24 24 24 23 22 21 21 21 22 23 24 25 25 26 27 28 29 30 31 32 32 32 31 30 29 27 25 24 22 21
41 41 42 42 43 43 43 43 43 43 42 42 42 42 41 40 39 38 38 39 41 41 40 39 38 37 37 36 35 34 34 33 32 32 32 31 31 31 30 29 29 29 29 28 27 27 26 26 26 25 25 24 24 23 23 23 22 21 20 19 19 19 20 21 22 22 23 24 25 27 28 28 29 30 31 30 29 27 26 24 23 21 20 19 19
38 39 40 40 41 42 42 42 42 42 41 41 41 40 40 40 39 38 36 35 35 36 36 36 35 35 34 34 33 32 32 32 31 31 30 30 30 29 28 28 27 27 27 26 26 25 25 24 24 23 23 22 22 21 21 20 19 18 17 17 18 18 19 20 20 21 22 23 25 26 27 28 29 29 29 27 25 23 22 20 19 18 18 18 19
34 35 36 37 38 39 40 40 41 41 40 40 40 39 39 39 39 39 37 35 33 32 32 32 32 32 32 31 30 30 29 29 29 28 28 27 27 26 25 25 24 24 24 24 23 23 23 22 22 21 21 21 20 19 18 17 16 16 16 16 17 17 17 18 19 20 22 23 24 26 27 28 28 27 26 23 21 19 18 17 17 17 18 18 19
29 30 32 32 34 35 36 37 39 39 39 38 38 38 38 37 37 37 37 36 34 32 30 29 29 29 30 30 29 28 27 27 26 25 25 24 23 22 22 22 22 22 22 21 21 21 20 20 20 19 19 18 17 16 15 15 14 14 14 15 15 15 16 17 18 19 21 22 24 25 27 27 26 25 23 20 18 17 16 16 16 17 18 19 19
26 27 28 29 29 30 32 33 35 37 37 36 36 36 36 36 35 35 34 35 35 34 32 30 29 29 29 28 28 27 26 25 24 23 23 22 21 21 21 21 20 20 19 19 19 18 18 18 18 17 17 16 15 14 14 13 13 13 13 13 13 13 14 16 17 19 20 22 23 25 26 26 25 23 20 18 17 16 16 16 17 18 18 18 18
25 25 26 27 26 26 27 29 31 33 34 33 33 33 34 34 34 33 33 33 34 34 33 31 30 29 29 29 28 27 26 25 23 22 21 21 20 20 20 19 19 18 18 18 17 17 17 16 16 15 14 14 13 13 12 12 12 11 11 11 12 13 14 15 16 18 20 21 22 24 25 25 23 21 19 17 16 16 16 17 17 17 18 18 18
23 23 23 24 24 24 24 25 27 29 30 30 30 30 30 31 31 32 32 32 32 32 32 32 30 29 28 28 27 26 24 23 22 22 21 20 19 19 19 18 18 17 17 16 16 16 15 15 14 13 13 13 12 12 11 11 10 10 10 10 11 12 13 14 16 17 19 20 22 23 24 24 22 20 18 17 16 16 16 16 17 17 17 17 18
20 18 18 19 20 21 21 22 24 26 27 27 26 26 27 27 28 29 30 30 30 30 31 31 31 30 29 28 26 25 24 23 22 22 22 20 19 19 18 17 17 16 15 15 15 14 14 13 13 13 12 12 11 10 10 9 9 9 9 9 10 11 12 13 15 17 18 19 21 22 23 23 21 19 18 16 16 15 16 16 16 16 16 17 18
17 13 12 14 16 17 18 19 21 23 24 24 24 24 24 25 25 26 27 28 29 29 29 30 30 30 30 28 27 26 25 24 23 22 22 21 19 18 17 16 15 15 14 14 14 13 13 13 12 12 11 11 10 9 9 8 8 8 8 8 9 10 11 13 14 16 17 18 20 21 22 23 21 19 18 16 15 15 15 15 15 15 16 17 17
16 11 8 8 11 13 14 16 17 20 22 22 22 22 22 21 22 24 25 25 26 26 27 27 28 29 28 27 25 23 23 21 20 21 21 20 19 18 16 15 15 14 14 13 13 12 12 12 12 11 10 10 9 8 8 8 8 7 7 8 8 9 11 12 14 15 16 18 19 21 22 22 21 20 18 16 16 15 14 14 14 15 15 16 16
16 11 7 4 5 8 11 13 15 17 18 19 19 19 19 18 19 21 22 22 22 22 22 23 24 25 26 27 25 22 20 19 18 18 19 19 18 17 16 15 14 13 13 13 12 12 11 11 11 10 9 9 9 8 8 7 7 7 7 7 8 9 10 11 13 15 16 17 19 20 21 22 21 20 18 17 16 15 14 14 14 14 14 15 15
17 14 10 6 2 3 6 10 13 14 15 16 16 16 15 15 16 17 18 18 18 18 19 20 20 21 23 25 25 23 21 20 19 18 18 17 17 16 16 15 13 13 13 12 12 11 11 10 10 9 9 9 8 8 7 7 6 6 6 7 7 8 10 11 12 14 16 17 19 20 21 21 21 20 19 18 17 15 14 14 14 14 14 14 14
18 16 13 10 7 5 6 8 10 12 13 14 14 14 14 13 14 15 15 15 15 16 17 18 19 20 21 23 24 23 21 20 19 18 18 17 16 16 15 14 13 13 12 12 11 11 10 10 10 9 9 9 8 7 7 6 6 6 6 7 7 8 9 10 12 14 15 17 18 19 20 20 20 20 20 20 18 16 15 14 14 14 14 14 14
18 17 15 13 10 7 6 7 8 10 10 11 11 12 12 12 12 13 13 13 14 15 15 16 18 19 19 20 21 21 21 20 19 18 17 16 15 14 14 13 13 13 12 11 11 10 10 10 10 9 9 8 8 7 7 6 6 6 6 7 7 8 9 10 12 14 15 16 18 19 19 20 20 20 20 20 20 18 16 15 15 14 14 14 14
18 17 16 15 13 10 8 7 7 8 8 9 10 10 11 11 11 12 12 12 13 14 15 16 17 18 17 18 18 19 19 19 18 17 16 16 15 14 13 13 13 12 11 11 10 10 9 10 10 9 9 8 8 7 7 6 6 6 6 7 7 8 9 10 12 13 15 16 17 18 19 20 20 20 20 21 20 20 18 17 15 15 15 14 14
18 18 17 16 15 14 12 11 9 8 8 9 9 10 10 10 10 11 11 12 13 14 15 17 17 17 17 17 18 18 18 17 17 16 16 15 14 13 13 13 12 11 11 11 10 10 9 9 9 9 9 8 8 7 7 6 6 6 6 7 7 8 9 10 12 13 14 15 16 17 18 19 19 20 20 21 21 20 20 18 17 16 15 14 13
18 18 18 17 16 16 15 14 13 12 11 10 10 10 11 11 11 11 12 13 14 15 16 17 17 17 17 17 18 17 17 16 16 15 15 14 14 13 13 12 12 11 11 11 10 9 9 9 9 9 9 8 8 7 7 6 6 6 6 7 7 8 10 11 12 13 14 15 16 17 17 18 18 19 20 20 21 21 20 20 18 17 16 14 13
19 18 18 18 17 16 15 15 14 14 13 12 12 12 12 12 12 13 13 14 15 16 16 16 16 16 17 17 16 16 15 15 14 14 14 14 14 13 13 12 12 12 11 10 10 9 9 9 9 9 9 8 8 7 6 6 6 6 7 7 8 9 10 11 11 12 14 15 16 16 17 17 18 18 19 20 20 21 21 20 20 18 17 15 13
18 18 18 18 17 17 16 15 14 14 14 14 14 13 13 13 13 14 14 15 16 16 16 16 15 15 15 15 14 14 14 13 14 14 14 13 13 12 12 12 12 11 11 10 10 9 9 9 9 9 9 8 7 7 6 6 6 7 7 8 9 10 10 11 11 12 13 14 15 16 16 17 17 18 18 19 20 20 21 21 20 19 18 16 14
16 16 16 16 16 16 16 16 15 15 14 14 14 14 13 13 13 14 14 14 14 14 14 13 13 13 12 12 12 12 12 12 13 13 13 12 12 12 12 12 11 11 10 10 10 9 9 9 9 9 9 8 7 7 7 7 7 8 8 9 9 10 11 11 11 12 13 14 14 15 16 16 17 17 18 18 19 19 20 20 20 20 19 17 16
Wind_Direction
240 243 245 248 252 252 252 253 255 258 256 252 248 243 239 237 235 231 229 231 232 230 230 230 229 229 230 229 229 229 230 230 231 232 231 229 228 228 231 234 237 242 245 249 253 253 254 254 255 258 260 262 265 267 269 272 275 279 282 284 286 287 288 290 289 288 289 292 293 295 298 299 301 303 303 302 302 302 301 300 300 301 301 298 296
242 245 248 250 253 253 254 255 256 256 252 249 245 239 236 236 235 231 230 233 234 232 230 229 229 230 231 233 235 235 235 236 238 240 240 238 238 239 242 244 248 252 254 256 258 259 260 260 261 262 264 266 267 268 270 272 274 277 279 279 281 283 284 285 286 286 287 289 291 294 297 298 300 302 303 302 301 300 299 299 299 299 300 299 297
243 246 249 252 254 256 257 257 256 253 250 247 244 239 236 236 235 233 231 233 235 234 233 233 234 234 234 235 237 238 239 238 239 242 243 243 244 245 247 249 252 255 258 259 260 261 262 263 264 265 266 267 268 269 270 272 274 275 276 277 277 280 283 284 285 286 286 287 289 292 294 296 297 300 301 300 300 299 298 298 297 297 298 298 295
247 248 250 253 256 258 258 256 253 251 250 247 245 242 238 237 237 236 235 234 235 236 237 238 239 238 239 239 239 240 241 240 241 243 245 246 247 248 250 252 255 256 258 259 260 261 262 263 264 265 268 269 270 271 271 271 273 273 274 275 277 280 284 287 288 288 287 286 287 289 291 293 293 295 297 296 295 296 297 296 296 296 297 297 295
253 253 253 254 255 257 257 255 252 251 251 250 248 245 241 240 241 240 239 238 237 237 239 241 243 243 244 245 244 244 245 245 246 246 248 250 251 253 255 256 258 260 261 261 261 261 262 263 264 265 267 269 270 271 270 270 271 272 273 274 276 279 283 287 289 289 289 288 287 288 289 290 290 292 294 294 293 292 293 293 293 294 295 296 295
260 260 258 256 256 257 257 255 252 252 252 252 250 246 242 242 243 243 243 241 240 240 241 243 245 245 246 247 247 247 248 248 249 249 250 252 253 256 259 260 261 262 263 263 263 264 264 265 265 267 268 270 271 272 271 271 272 273 273 273 275 277 281 285 287 289 290 289 288 289 290 291 291 291 293 294 292 291 293 292 291 291 293 294 294
265 264 261 259 258 258 257 254 253 253 253 253 250 245 243 243 245 246 246 244 243 243 242 243 245 245 246 247 248 248 249 249 250 251 252 253 254 256 259 261 262 262 263 265 266 266 267 266 266 267 268 270 272 273 273 274 274 274 273 274 275 277 280 282 284 286 288 288 288 289 290 291 291 291 292 293 291 291 292 292 291 291 292 293 292
268 265 263 261 260 259 258 256 255 255 254 254 250 247 246 246 247 248 247 245 244 244 244 244 245 246 247 249 250 251 251 251 252 253 255 256 256 258 260 261 262 263 265 266 267 268 268 268 268 267 268 269 270 272 272 273 273 272 273 274 275 277 279 281 282 284 285 286 287 288 288 289 290 291 292 292 291 291 291 291 291 291 291 291 290
267 265 264 263 262 260 259 259 258 257 257 255 253 250 249 248 249 249 247 246 245 246 247 247 248 250 252 252 253 255 255 255 254 255 257 258 258 259 260 261 262 264 266 266 266 266 268 269 269 268 269 269 269 269 270 270 270 271 273 274 275 277 279 280 282 283 284 285 286 287 287 288 289 290 291 291 291 291 291 290 290 290 290 290 288
268 266 265 265 263 261 260 260 260 260 259 257 255 253 251 250 249 249 249 248 248 249 250 250 251 253 254 255 256 258 258 257 255 256 257 259 260 260 261 261 261 263 265 264 264 265 267 269 269 269 269 269 269 268 268 268 269 271 272 273 275 277 278 280 282 283 283 284 285 286 287 287 288 289 289 289 289 290 290 291 291 290 290 290 289
269 269 268 267 265 263 262 262 261 261 261 260 258 256 253 251 250 249 249 250 250 251 252 253 254 255 255 255 256 258 259 258 256 256 258 259 260 261 261 260 260 262 263 263 264 265 266 268 269 269 269 269 269 268 267 268 269 271 272 274 276 278 279 280 281 282 283 284 285 285 286 287 288 288 288 288 288 289 290 290 290 290 289 289 289
271 271 271 270 268 266 265 264 263 262 261 261 260 258 256 254 252 251 251 251 252 253 254 254 256 257 258 258 257 258 258 257 257 258 259 259 258 258 258 258 258 259 261 263 265 266 266 267 268 269 270 270 270 270 269 268 269 270 272 274 277 279 280 281 281 281 283 284 284 285 286 287 288 288 288 288 288 288 288 288 288 288 288 288 288
273 273 272 272 271 269 268 266 264 263 262 261 260 259 258 256 255 254 253 254 255 256 256 256 257 259 260 259 257 256 255 255 257 257 256 254 253 254 256 257 258 260 263 265 266 266 267 268 269 271 272 272 272 272 271 269 268 270 272 274 276 278 279 280 281 282 283 284 285 285 286 287 287 288 288 289 289 289 288 288 287 287 286 286 286
273 273 273 273 273 272 270 268 266 264 263 261 260 260 259 257 256 255 255 256 258 258 256 256 258 258 258 257 256 254 252 252 254 253 250 249 249 252 256 259 261 262 264 265 266 266 267 269 270 271 273 274 274 274 272 270 269 270 272 274 277 278 280 281 283 284 285 285 286 286 287 287 287 287 288 289 289 289 288 288 288 287 286 285 285
274 273 273 273 273 273 273 271 268 265 263 262 260 259 259 258 257 256 255 256 257 257 255 255 257 257 256 256 255 253 252 250 249 248 247 248 250 253 257 260 262 263 264 266 267 268 269 270 271 272 273 274 274 274 273 271 270 270 272 275 277 279 280 282 284 285 286 287 287 287 287 288 288 288 289 289 289 289 288 288 288 287 287 286 286
274 274 274 273 272 273 274 273 269 266 263 261 259 259 258 258 257 256 255 255 255 255 255 255 255 255 255 254 252 251 251 250 249 249 249 250 252 255 257 259 260 262 264 266 268 270 271 272 272 273 273 274 274 274 273 272 272 272 274 275 277 279 281 283 284 286 287 287 288 288 288 289 289 289 290 290 289 289 289 288 288 288 287 287 287
273 273 273 273 272 273 273 271 269 266 263 260 259 259 259 259 258 257 255 255 254 254 254 254 253 252 252 251 250 250 251 251 252 252 251 252 254 256 257 258 259 262 264 267 269 271 273 273 273 273 274 274 274 274 273 273 273 274 275 276 278 280 281 283 285 286 287 287 288 289 289 289 289 290 290 290 290 290 290 289 289 289 288 288 287
273 272 271 271 271 271 270 269 268 265 263 262 261 260 260 259 257 256 254 253 253 252 252 251 250 250 249 250 251 251 251 252 252 252 252 252 254 255 257 258 260 262 264 267 270 272 274 275 275 275 275 275 275 274 274 274 274 275 276 277 279 280 282 284 285 286 287 287 288 289 289 289 290 290 290 290 290 290 290 289 290 289 289 288 288
273 271 270 270 269 268 268 267 266 264 263 263 262 260 259 256 254 253 251 250 250 249 249 249 249 249 250 250 250 250 250 251 252 252 251 252 254 256 257 258 260 261 263 266 269 272 275 277 277 277 277 277 276 275 275 275 275 275 277 278 280 282 283 284 285 286 286 287 288 288 289 289 290 290 290 291 291 290 290 290 290 290 289 288 288
272 271 270 269 269 268 267 266 264 262 262 262 261 259 258 255 252 250 249 248 248 248 247 248 248 249 250 249 248 248 249 250 252 253 253 253 255 257 257 258 260 261 263 266 269 272 275 276 278 279 279 278 277 277 277 277 277 277 278 280 281 283 283 284 285 286 287 287 288 289 289 290 290 291 291 291 291 291 290 290 290 289 289 288 288
272 271 270 269 268 267 266 265 264 262 260 260 259 257 256 254 252 249 247 247 247 247 247 247 247 248 248 247 246 247 249 252 255 255 255 255 256 258 259 260 261 263 265 267 270 273 275 276 277 279 279 279 278 279 279 280 280 280 281 282 283 283 284 285 286 287 287 288 289 289 290 290 291 291 291 291 291 291 291 290 289 289 288 288 287
271 270 269 268 268 267 265 264 262 261 260 259 257 255 254 253 252 249 246 245 245 245 246 247 247 247 248 248 248 249 252 255 257 257 256 256 258 260 261 262 263 264 266 268 270 273 274 275 277 278 278 279 280 280 281 282 282 282 283 284 284 285 285 286 287 288 288 289 289 290 291 291 292 292 292 292 292 291 291 290 290 289 288 288 287
270 270 268 267 266 266 265 264 262 260 259 258 257 255 253 251 250 247 244 243 243 245 247 248 248 249 249 250 251 253 254 257 259 259 258 258 259 260 262 263 264 266 267 268 270 272 273 275 276 276 277 279 279 280 281 282 283 283 283 284 285 286 287 287 288 288 289 290 290 291 292 292 293 293 292 292 292 292 292 291 291 290 289 289 288
269 269 268 266 265 264 264 263 262 260 258 257 256 255 252 250 247 245 243 243 244 245 246 247 248 250 252 252 253 255 256 258 260 261 260 259 260 261 262 264 266 267 268 269 270 272 273 274 275 275 277 278 279 281 282 283 283 283 284 285 286 286 287 288 288 289 290 291 292 292 293 293 293 293 293 293 293 293 293 292 292 291 290 290 289
268 267 267 266 265 264 263 262 261 260 259 257 255 254 252 250 247 246 245 245 245 246 246 247 249 251 252 253 254 256 257 258 259 260 261 260 260 262 264 265 266 267 268 269 271 272 273 273 274 275 277 278 279 280 281 282 283 284 285 286 286 287 287 288 290 291 292 292 293 293 293 294 294 294 294 294 294 294 293 293 293 292 292 291 290
266 266 265 264 264 263 262 261 260 259 258 257 255 252 251 249 248 247 246 245 245 246 247 248 250 251 252 253 254 256 257 257 258 259 259 260 262 264 265 266 267 267 268 269 270 271 272 273 274 276 277 278 279 280 280 282 283 285 286 287 287 288 289 291 292 292 292 293 294 294 295 296 296 296 296 295 295 295 295 295 294 294 294 293 292
266 265 264 263 263 262 261 260 259 258 257 256 254 251 249 248 248 248 247 245 245 245 246 248 250 250 251 251 253 254 255 256 257 257 258 260 262 263 265 265 265 265 266 266 268 270 272 273 274 276 278 279 280 280 281 282 284 286 288 289 289 290 291 292 292 293 294 295 295 296 297 297 297 297 297 297 297 297 297 296 295 295 295 294 293
266 264 263 262 262 261 259 258 257 256 255 255 253 251 249 248 248 247 246 244 243 244 245 247 248 249 251 251 252 253 254 255 256 257 258 259 261 262 263 263 263 264 264 266 268 270 272 273 274 276 278 278 279 280 282 283 285 287 289 290 290 290 291 292 293 294 295 296 297 298 299 298 298 298 298 297 298 298 298 297 296 296 295 295 294
266 265 263 262 261 260 259 257 256 255 253 253 252 251 249 248 247 246 245 243 243 244 245 246 248 250 252 252 251 252 253 255 256 257 258 259 260 261 261 262 263 265 265 266 267 269 270 271 273 275 276 277 278 280 282 283 284 286 288 289 289 290 291 293 294 296 297 298 299 300 300 300 300 300 300 299 300 300 299 298 297 297 297 296 296
267 265 263 262 260 259 258 257 255 253 252 251 250 250 249 247 246 245 245 244 244 246 248 249 250 250 250 250 251 252 254 255 256 256 258 259 261 262 262 263 264 265 265 266 267 268 269 270 272 274 275 277 279 280 281 282 283 285 286 287 288 290 292 294 296 298 299 300 300 301 302 303 303 303 303 302 302 301 300 299 298 298 297 297 297
268 266 264 262 260 258 256 255 254 252 251 250 249 248 247 247 245 245 245 245 246 247 249 249 248 247 247 248 250 253 254 255 255 256 258 259 261 263 263 264 264 263 263 264 265 266 267 269 271 273 275 277 279 280 281 282 282 283 284 286 288 290 293 296 298 300 301 301 302 304 305 305 305 305 305 304 304 303 302 300 299 299 299 299 299
269 267 265 262 260 257 255 254 252 251 250 249 248 246 245 244 244 244 245 245 246 247 247 246 245 245 246 247 249 251 253 254 254 256 258 260 261 262 262 262 261 261 261 263 264 265 266 268 270 272 274 276 277 278 279 279 280 281 283 285 288 292 295 298 300 302 303 305 306 307 308 307 307 308 308 307 306 304 303 302 301 301 301 302 303
270 268 265 263 260 258 255 252 250 249 248 247 246 245 243 242 242 242 243 244 245 244 243 242 242 242 243 245 247 249 251 252 253 255 257 259 260 260 259 259 259 259 260 261 262 263 265 267 269 271 272 273 274 275 276 276 277 279 282 285 290 293 296 299 302 304 306 308 310 311 311 311 311 311 311 309 307 305 304 303 303 303 304 305 306
272 269 267 263 260 258 255 251 248 247 246 245 244 243 242 242 241 240 239 240 241 241 240 239 239 238 239 242 244 246 248 249 251 254 257 258 258 257 256 256 256 257 258 259 260 262 264 266 267 268 269 270 271 271 272 272 274 278 282 287 291 294 297 301 305 308 310 311 314 316 316 316 316 315 313 310 308 306 305 305 305 306 306 307 307
275 272 268 265 261 257 254 250 247 244 244 244 243 241 241 240 239 238 236 235 235 234 234 234 235 237 239 240 241 243 244 246 249 253 256 256 255 253 253 253 253 255 256 257 259 260 262 263 264 265 265 266 266 266 267 270 273 278 283 288 291 296 301 305 308 311 313 315 318 320 321 321 320 317 314 311 308 307 307 307 307 307 308 308 308
280 275 269 265 261 256 252 249 245 242 241 241 240 239 238 237 236 235 234 233 232 230 232 235 237 238 239 240 240 241 242 244 248 251 253 253 251 250 250 250 251 252 254 255 257 259 260 261 261 261 261 260 260 262 265 269 273 278 283 288 293 299 304 308 311 314 317 320 322 324 325 325 322 319 316 313 310 308 308 308 308 309 309 309 310
285 279 271 264 259 255 251 246 242 239 237 237 237 237 235 234 233 233 232 232 231 230 231 234 235 235 236 238 239 241 243 244 247 248 249 248 248 247 247 248 249 250 252 253 255 257 258 257 256 255 255 256 257 260 263 267 272 277 282 289 296 301 306 310 315 319 322 324 326 328 329 328 325 322 318 315 312 310 310 309 310 310 311 312 313
291 283 272 262 256 252 248 244 239 235 233 233 233 233 232 231 230 230 230 230 230 229 229 229 230 230 232 235 237 238 239 241 242 242 243 244 244 244 244 244 245 247 249 251 253 254 253 251 250 251 252 253 255 257 260 265 270 276 283 291 297 302 308 313 318 322 325 328 331 332 333 333 330 326 321 316 313 312 311 311 311 312 313 314 316
303 288 273 261 253 247 243 241 236 230 228 227 228 228 228 227 227 227 227 227 227 228 228 228 229 230 232 234 235 236 236 237 238 238 237 239 241 240 239 240 242 244 246 247 249 249 247 246 247 249 249 249 250 252 256 262 268 276 284 291 296 303 311 317 322 326 329 332 335 336 338 338 336 331 325 320 316 314 313 312 312 314 315 316 317
324 304 280 261 250 242 238 236 231 226 222 221 222 223 224 224 225 224 224 225 226 227 229 230 231 232 233 233 234 235 235 236 237 234 232 233 234 233 233 237 239 239 241 243 244 244 244 244 245 245 243 242 243 246 252 260 268 276 283 289 296 306 314 321 326 330 333 335 338 339 341 342 341 337 332 326 321 317 315 315 315 316 317 317 318
344 331 303 270 248 238 233 229 224 219 216 215 217 218 219 222 223 223 223 224 226 227 229 230 231 231 229 225 225 227 230 230 229 227 225 225 226 227 229 232 233 234 236 238 239 240 241 241 239 236 234 234 237 242 250 259 267 273 279 287 298 309 317 324 329 333 335 338 340 342 344 345 345 343 339 334 328 323 320 318 318 319 319 320 322
1 358 346 313 252 230 222 216 212 209 208 208 210 212 215 218 220 220 220 221 223 225 227 229 229 226 222 218 217 220 222 221 219 219 219 219 221 223 225 227 229 231 233 233 234 236 235 232 229 227 226 228 234 241 250 257 264 269 277 289 301 311 319 326 332 336 338 340 342 344 346 347 348 348 344 340 335 330 326 323 322 322 323 325 327
18 20 23 28 52 164 185 190 193 194 195 198 202 205 208 212 214 214 214 216 218 220 221 222 221 218 215 214 214 216 216 216 215 215 214 215 216 218 220 223 227 229 228 227 228 228 226 223 221 220 222 226 233 241 247 252 259 267 279 291 302 311 320 328 334 337 340 342 344 346 348 349 350 351 350 346 341 336 331 327 325 324 325 327 328
27 31 37 46 64 96 131 154 169 178 184 190 196 200 202 205 207 208 209 211 212 211 211 210 209 207 208 209 209 209 211 212 212 211 210 210 212 213 217 221 224 223 222 221 221 219 218 217 216 218 221 227 233 237 241 246 256 269 281 293 303 312 321 329 334 338 341 343 345 347 349 351 351 352 353 352 348 342 336 331 327 325 325 326 327
33 38 42 49 62 84 113 139 158 172 182 188 194 197 199 201 202 203 204 206 206 203 201 201 200 199 199 200 201 203 205 206 206 206 206 206 208 211 216 219 218 217 216 215 215 214 214 214 215 218 222 227 230 232 235 242 255 271 284 294 304 313 322 328 334 337 340 343 345 347 349 351 353 353 354 354 353 350 344 337 331 326 325 325 326
39 44 48 52 59 72 91 116 141 161 174 181 185 189 192 194 196 196 197 197 196 193 191 192 192 192 193 193 194 195 197 199 200 201 201 203 207 212 214 213 212 210 210 211 211 212 213 214 215 219 223 225 225 227 233 242 255 272 286 297 306 315 322 328 333 336 339 341 344 347 349 351 353 354 354 354 355 354 351 345 338 331 327 325 325
43 47 51 55 60 68 78 90 105 123 140 152 161 168 173 176 179 180 180 180 181 181 180 181 182 183 184 185 186 188 190 192 195 197 200 204 209 210 208 206 206 206 208 209 210 211 212 214 216 219 220 221 222 227 234 245 257 272 287 299 307 316 323 328 332 335 338 340 342 345 348 350 352 354 355 356 356 356 355 352 346 339 332 328 326
49 51 53 57 61 67 74 82 90 99 109 120 130 138 145 150 153 156 159 162 164 165 167 169 172 174 177 179 181 185 188 191 194 199 202 205 205 203 201 202 204 206 208 209 209 210 212 214 216 216 217 218 222 229 237 248 260 273 287 299 308 316 322 326 330 333 337 339 341 343 346 349 351 353 355 356 357 357 357 355 352 347 341 335 330
52 54 56 58 61 66 72 78 85 91 96 103 111 119 125 130 135 139 144 148 152 156 159 163 167 170 173 176 180 186 190 193 196 199 200 199 197 197 199 202 205 206 207 207 206 207 210 212 213 215 216 218 224 232 241 253 264 276 287 298 308 315 319 323 327 331 335 338 340 343 345 347 349 352 353 355 356 358 359 358 356 353 349 344 339
52 55 57 59 62 66 71 76 82 87 92 97 104 110 115 121 128 134 139 144 149 153 156 159 163 167 171 176 181 186 188 190 191 191 192 192 194 197 199 201 202 203 202 201 201 204 209 213 216 218 219 223 229 237 246 257 268 279 288 297 306 314 318 319 322 327 332 336 339 342 345 347 349 351 353 354 356 357 359 360 359 358 355 352 348
53 56 58 60 63 66 70 74 80 85 91 96 102 107 112 118 124 129 134 138 144 149 153 157 162 167 171 176 180 182 183 184 185 187 189 192 195 196 196 197 198 199 199 200 203 208 214 219 223 224 225 228 235 243 252 262 272 281 289 295 303 311 316 318 319 323 329 333 336 340 343 346 347 349 351 353 355 356 358 360 1 1 0 358 355